1998,3,1,0,5,-5.34,01,-.39,01,-4.80,01,0.00,01,-5.15,01,79.70,,14.18,08
1998,3,1,0,10,-5.04,01,-.17,01,-4.67,01,0.00,01,-5.34,01,81.20,,14.19,08
1998,3,1,0,15,-4.68,01,0.00,01,-4.41,01,0.00,01,-5.23,01,80.60,,14.19,08
1998,3,1,0,20,-4.51,01,.48,01,-4.24,01,0.00,01,-5.17,01,79.40,,14.19,08
1998,3,1,0,25,-4.21,01,1.71,01,-4.04,01,0.00,01,-4.95,01,79.00,,14.20,08
1998,3,1,0,30,-4.03,01,2.27,01,-3.97,01,0.00,01,-4.71,01,77.20,,14.21,08
1998,3,1,0,35,-4.39,01,2.34,01,-4.09,01,0.00,01,-4.69,01,76.20,,14.21,08
1998,3,1,0,40,-4.40,01,2.19,01,-4.19,01,0.00,01,-4.71,01,76.80,,14.21,08
1998,3,1,0,45,-4.50,01,2.48,01,-4.33,01,0.00,01,-4.74,01,76.80,,14.21,08
1998,3,1,0,50,-4.57,01,3.70,01,-4.37,01,0.00,01,-4.44,01,75.00,,14.22,08
1998,3,1,0,55,-4.83,01,4.45,01,-4.66,01,0.00,01,-4.29,01,74.70,,14.22,08
1998,3,1,1,0,-4.77,01,5.14,01,-4.69,01,0.00,01,-4.32,01,76.30,,14.22,08
1998,3,1,1,5,-4.71,01,5.47,01,-4.65,01,0.00,01,-4.20,01,78.00,,14.22,08
1998,3,1,1,10,-4.80,01,5.50,01,-4.81,01,0.00,01,-4.13,01,76.40,,14.23,08
1998,3,1,1,15,-5.31,01,4.44,01,-5.21,01,0.00,01,-4.64,01,76.30,,14.23,08
1998,3,1,1,20,-5.35,01,4.46,01,-5.22,01,0.00,01,-5.06,01,78.50,,14.23,08
1998,3,1,1,25,-5.17,01,4.25,01,-4.97,01,0.00,01,-4.96,01,77.40,,14.23,08
1998,3,1,1,30,-4.89,01,4.71,01,-4.70,01,0.00,01,-4.83,01,75.50,,14.23,08
1998,3,1,1,35,-4.39,01,6.10,01,-4.33,01,0.00,01,-4.75,01,76.30,,14.23,08
1998,3,1,1,40,-4.49,01,6.57,01,-4.29,01,0.00,01,-4.86,01,76.70,,14.24,08
1998,3,1,1,45,-4.96,01,5.87,01,-4.62,01,0.00,01,-4.98,01,77.30,,14.24,08
1998,3,1,1,50,-5.12,01,4.55,01,-4.92,01,0.00,01,-5.12,01,77.70,,14.24,08
1998,3,1,1,55,-5.17,01,3.36,01,-4.92,01,0.00,01,-4.96,01,76.40,,14.24,08
1998,3,1,2,0,-5.20,01,2.93,01,-4.93,01,0.00,01,-4.93,01,75.60,,14.25,08
1998,3,1,2,5,-5.13,01,2.62,01,-4.88,01,0.00,01,-4.93,01,74.80,,13.78,01
1998,3,1,2,10,-4.95,01,2.20,01,-4.76,01,0.00,01,-5.03,01,74.90,,13.59,01
1998,3,1,2,15,-4.80,01,2.20,01,-4.59,01,0.00,01,-4.93,01,74.30,,13.49,01
1998,3,1,2,20,-4.63,01,2.32,01,-4.43,01,0.00,01,-5.00,01,75.00,,13.43,01
1998,3,1,2,25,-4.42,01,2.93,01,-4.12,01,0.00,01,-5.08,01,74.20,,13.41,01
1998,3,1,2,30,-4.52,01,2.50,01,-4.27,01,0.00,01,-5.30,01,73.00,,13.40,01
1998,3,1,2,35,-4.88,01,.82,01,-4.63,01,0.00,01,-5.89,01,76.40,,13.38,01
1998,3,1,2,40,-4.92,01,.47,01,-4.71,01,0.00,01,-6.40,01,81.20,,13.38,01
1998,3,1,2,45,-4.44,01,1.55,01,-4.30,01,0.00,01,-6.46,01,83.30,,13.36,01
1998,3,1,2,50,-4.35,01,3.36,01,-4.10,01,0.00,01,-6.43,01,83.30,,13.36,01
1998,3,1,2,55,-4.36,01,5.23,01,-4.16,01,0.00,01,-6.00,01,81.20,,13.36,01
1998,3,1,3,0,-4.40,01,6.08,01,-4.33,01,0.00,01,-5.50,01,76.80,,13.36,01
1998,3,1,3,5,-4.56,01,6.02,01,-4.60,01,0.00,01,-5.43,01,75.80,,14.12,08
1998,3,1,3,10,-4.84,01,6.39,01,-4.76,01,0.00,01,-5.44,01,75.50,,14.20,08
1998,3,1,3,15,-6.07,01,4.55,01,-5.95,01,0.00,01,-6.47,01,80.20,,14.23,08
1998,3,1,3,20,-6.04,01,2.27,01,-5.99,01,0.00,01,-7.54,01,88.90,,14.25,08
1998,3,1,3,25,-4.72,01,3.43,01,-4.62,01,0.00,01,-7.38,01,90.40,,14.26,08
1998,3,1,3,30,-3.99,01,5.31,01,-3.72,01,0.00,01,-6.96,01,90.30,,14.27,08
1998,3,1,3,35,-3.69,01,6.37,01,-3.43,01,0.00,01,-6.85,01,86.20,,14.27,08
1998,3,1,3,40,-4.17,01,6.28,01,-3.90,01,0.00,01,-6.80,01,84.40,,14.27,08
1998,3,1,3,45,-3.67,01,7.69,01,-3.48,01,0.00,01,-5.66,01,81.50,,14.28,08
1998,3,1,3,50,-4.01,01,6.95,01,-3.85,01,0.00,01,-5.01,01,77.10,,14.28,08
1998,3,1,3,55,-4.19,01,6.02,01,-4.07,01,0.00,01,-4.85,01,76.60,,14.27,08
1998,3,1,4,0,-4.05,01,5.50,01,-4.07,01,0.00,01,-4.41,01,74.60,,14.27,08
1998,3,1,4,5,-4.23,01,5.08,01,-4.30,01,0.00,01,-4.03,01,72.10,,14.27,08
1998,3,1,4,10,-4.56,01,4.41,01,-4.38,01,0.00,01,-4.12,01,71.50,,14.27,08
1998,3,1,4,15,-4.68,01,4.33,01,-4.42,01,0.00,01,-4.14,01,70.40,,14.27,08
1998,3,1,4,20,-4.56,01,4.40,01,-4.34,01,0.00,01,-4.05,01,69.10,,14.27,08
1998,3,1,4,25,-4.75,01,4.40,01,-4.65,01,0.00,01,-4.02,01,69.22,,14.27,08
1998,3,1,4,30,-4.68,01,4.65,01,-4.51,01,0.00,01,-4.04,01,69.91,,14.27,08
1998,3,1,4,35,-4.87,01,4.59,01,-4.75,01,0.00,01,-4.06,01,69.85,,14.27,08
1998,3,1,4,40,-4.92,01,4.40,01,-4.92,01,0.00,01,-4.11,01,70.10,,14.27,08
1998,3,1,4,45,-5.23,01,4.19,01,-5.01,01,0.00,01,-4.24,01,70.70,,14.26,08
1998,3,1,4,50,-5.35,01,3.67,01,-5.10,01,0.00,01,-4.40,01,71.50,,14.26,08
1998,3,1,4,55,-5.37,01,3.23,01,-5.33,01,0.00,01,-4.61,01,71.60,,14.27,08
1998,3,1,5,0,-5.37,01,2.92,01,-5.35,01,0.00,01,-5.00,01,73.20,,14.26,08
1998,3,1,5,5,-5.44,01,2.29,01,-5.54,01,0.00,01,-5.37,01,74.10,,14.27,08
1998,3,1,5,10,-5.44,01,2.00,01,-5.61,01,0.00,01,-5.64,01,76.10,,14.27,08
1998,3,1,5,15,-5.41,01,1.53,01,-5.57,01,0.00,01,-5.76,01,77.70,,14.27,08
1998,3,1,5,20,-5.24,01,2.00,01,-5.39,01,0.00,01,-5.87,01,78.70,,14.27,08
1998,3,1,5,25,-5.17,01,2.20,01,-5.18,01,0.00,01,-5.98,01,78.70,,14.27,08
1998,3,1,5,30,-5.00,01,2.75,01,-4.97,01,0.00,01,-6.06,01,79.00,,14.27,08
1998,3,1,5,35,-4.91,01,2.92,01,-4.97,01,0.00,01,-6.20,01,78.60,,14.27,08
1998,3,1,5,40,-4.94,01,2.93,01,-4.96,01,0.00,01,-6.43,01,78.60,,14.27,08
1998,3,1,5,45,-4.82,01,3.45,01,-4.82,01,0.00,01,-6.43,01,78.70,,14.28,08
1998,3,1,5,50,-4.60,01,4.22,01,-4.63,01,0.00,01,-6.39,01,78.40,,14.28,08
1998,3,1,5,55,-4.42,01,4.51,01,-4.46,01,0.00,01,-6.19,01,77.40,,14.28,08
1998,3,1,6,0,-4.71,01,4.32,01,-4.55,01,0.00,01,-6.23,01,77.80,,14.28,08
1998,3,1,6,5,-4.94,01,3.79,01,-4.84,01,0.00,01,-6.43,01,76.90,,14.29,08
1998,3,1,6,10,-4.88,01,3.08,01,-4.92,01,0.00,01,-6.62,01,77.20,,14.29,08
1998,3,1,6,15,-4.73,01,2.66,01,-4.75,01,0.00,01,-6.55,01,76.00,,14.29,08
1998,3,1,6,20,-4.92,01,1.76,01,-4.92,01,0.00,01,-6.60,01,76.30,,14.29,08
1998,3,1,6,25,-4.83,01,1.47,01,-4.82,01,0.00,01,-6.75,01,76.70,,14.29,08
1998,3,1,6,30,-4.69,01,1.63,01,-4.70,01,0.00,01,-7.01,01,77.80,,14.29,08
1998,3,1,6,35,-4.60,01,2.19,01,-4.60,01,0.00,01,-7.07,01,78.60,,14.29,08
1998,3,1,6,40,-4.54,01,2.88,01,-4.46,01,0.00,01,-7.01,01,76.60,,14.30,08
1998,3,1,6,45,-4.61,01,2.63,01,-4.33,01,0.00,01,-7.15,01,76.50,,14.30,08
1998,3,1,6,50,-4.73,01,2.20,01,-4.43,01,0.00,01,-7.27,01,77.60,,14.30,08
1998,3,1,6,55,-4.47,01,3.18,01,-4.27,01,0.00,01,-7.13,01,76.90,,14.30,08
1998,3,1,7,0,-4.33,01,4.57,01,-4.12,01,0.00,01,-6.97,01,76.70,,14.30,08
1998,3,1,7,5,-4.40,01,5.14,01,-4.25,01,0.00,01,-6.68,01,74.50,,14.31,08
1998,3,1,7,10,-4.67,01,5.44,01,-4.48,01,0.00,01,-6.64,01,74.30,,14.31,08
1998,3,1,7,15,-4.46,01,5.82,01,-4.47,01,0.00,01,-6.70,01,76.00,,14.31,08
1998,3,1,7,20,-4.51,01,5.95,01,-4.58,01,0.00,01,-6.81,01,76.10,,14.31,08
1998,3,1,7,25,-4.50,01,6.49,01,-4.46,01,0.00,01,-6.88,01,76.20,,14.31,08
1998,3,1,7,30,-4.50,01,6.44,01,-4.50,01,0.00,01,-6.98,01,77.20,,14.31,08
1998,3,1,7,35,-4.52,01,5.99,01,-4.53,01,0.00,01,-7.13,01,77.90,,14.31,08
1998,3,1,7,40,-4.74,01,5.44,01,-4.48,01,0.00,01,-7.33,01,76.80,,14.31,08
1998,3,1,7,45,-4.93,01,3.48,01,-4.67,01,0.00,01,-7.67,01,75.30,,14.32,08
1998,3,1,7,50,-5.11,01,1.40,01,-4.83,01,0.00,01,-8.02,01,77.50,,14.32,08
1998,3,1,7,55,-4.70,01,2.26,01,-4.50,01,0.00,01,-7.52,01,75.50,,14.32,08
1998,3,1,8,0,-4.45,01,3.81,01,-4.22,01,0.00,01,-7.03,01,72.60,,14.32,08
1998,3,1,8,5,-4.46,01,4.87,01,-4.23,01,0.00,01,-6.66,01,70.50,,14.32,08
1998,3,1,8,10,-4.76,01,5.52,01,-4.60,01,0.00,01,-6.64,01,70.80,,14.32,08
1998,3,1,8,15,-5.20,07,5.74,01,-5.18,07,0.00,01,-7.23,01,73.60,,14.32,08
1998,3,1,8,20,-5.40,07,5.26,01,-5.45,07,0.00,01,-8.25,01,77.80,,14.32,08
1998,3,1,8,25,-5.22,07,5.13,01,-5.30,07,0.00,01,-9.00,01,82.20,,14.32,08
1998,3,1,8,30,-4.97,07,4.54,01,-4.80,07,0.00,01,-9.27,01,86.20,,14.33,08
1998,3,1,8,35,-5.11,07,1.73,01,-4.61,07,0.00,01,-9.56,01,84.90,,14.33,08
1998,3,1,8,40,-4.85,07,1.07,01,-4.38,07,0.00,01,-9.57,01,86.50,,14.33,08
1998,3,1,8,45,-4.62,07,1.60,01,-4.40,07,0.00,01,-9.42,01,87.30,,14.33,08
1998,3,1,8,50,-4.51,07,2.17,01,-4.33,07,0.00,01,-9.52,01,86.20,,14.34,08
1998,3,1,8,55,-4.57,07,1.04,01,-4.29,07,0.00,01,-9.59,01,85.80,,14.34,08
1998,3,1,9,0,-4.51,07,.72,01,-4.30,07,0.00,01,-9.56,01,87.20,,14.34,08
1998,3,1,9,5,-4.27,07,1.63,01,-4.21,07,0.00,01,-9.33,01,88.50,,14.34,08
1998,3,1,9,10,-4.44,07,1.75,01,-4.32,07,0.00,01,-9.30,01,87.80,,14.34,08
1998,3,1,9,15,-4.85,07,.06,01,-4.72,07,0.00,01,-9.38,01,86.20,,14.34,08
1998,3,1,9,20,-4.77,07,.47,01,-4.59,07,0.00,01,-9.56,01,85.30,,14.34,08
1998,3,1,9,25,-4.44,07,1.95,01,-4.23,07,.00,01,-9.73,01,85.40,,14.34,08
1998,3,1,9,30,-4.06,07,3.69,01,-3.89,07,.32,01,-9.80,01,86.90,,14.35,08
1998,3,1,9,35,-3.34,07,4.93,01,-3.18,07,1.19,01,-9.74,01,89.30,,14.35,08
1998,3,1,9,40,-2.06,07,5.47,01,-1.71,07,2.87,01,-9.77,01,89.50,,14.35,08
1998,3,1,9,45,-.09,07,6.52,49,.12,49,5.15,01,-9.88,01,89.10,,14.35,08
1998,3,1,9,50,3.00,94,64.71,94,3.17,01,9.31,01,-9.90,01,89.70,,14.35,08
1998,3,1,9,55,8.56,95,162.00,95,6.90,01,16.39,01,-9.56,01,88.40,,14.35,08
1998,3,1,10,0,17.43,96,256.50,96,10.44,01,26.27,01,-9.13,01,87.60,,14.35,08
1998,3,1,10,5,27.79,97,331.20,97,13.35,01,38.14,01,-8.98,01,83.00,,14.35,08
1998,3,1,10,10,40.13,97,395.10,97,16.61,01,52.22,01,-9.01,01,83.50,,14.34,08
1998,3,1,10,15,54.59,97,460.70,97,20.04,01,69.05,01,-8.84,01,84.40,,14.34,08
1998,3,1,10,20,70.40,97,518.30,97,23.11,01,88.00,01,-8.49,01,86.20,,14.33,08
1998,3,1,10,25,86.60,97,565.10,97,25.53,01,107.70,01,-7.98,01,84.80,,14.32,08
1998,3,1,10,30,102.80,97,603.50,97,27.62,01,125.60,01,-7.41,01,83.40,,14.32,08
1998,3,1,10,35,120.50,97,641.50,97,30.08,01,142.00,01,-6.88,01,82.40,,14.31,08
1998,3,1,10,40,138.30,97,673.20,97,32.53,01,158.10,01,-6.42,01,79.50,,14.30,08
1998,3,1,10,45,155.90,97,700.00,97,34.78,01,174.40,01,-6.07,01,77.60,,14.29,08
1998,3,1,10,50,174.00,97,728.00,97,36.43,01,191.60,01,-5.66,01,75.50,,14.28,08
1998,3,1,10,55,191.70,97,751.00,97,37.73,01,208.80,01,-5.26,01,76.10,,14.27,08
1998,3,1,11,0,209.70,97,770.00,97,39.32,01,226.20,01,-4.81,01,75.90,,14.25,08
1998,3,1,11,5,227.50,97,786.00,97,40.97,01,243.30,01,-4.49,01,73.60,,14.24,08
1998,3,1,11,10,246.20,97,804.00,97,42.90,01,260.60,01,-4.13,01,75.10,,14.23,08
1998,3,1,11,15,265.00,97,821.00,97,44.07,01,278.80,01,-3.66,01,73.50,,14.22,08
1998,3,1,11,20,283.00,97,834.00,97,45.43,01,295.80,01,-3.16,01,72.40,,14.21,08
1998,3,1,11,25,301.80,97,851.00,97,46.97,01,313.30,01,-2.59,01,70.30,,14.20,08
1998,3,1,11,30,320.40,97,865.00,97,48.11,01,330.80,01,-2.09,01,67.01,,14.19,08
1998,3,1,11,35,339.50,97,878.00,97,48.99,01,347.90,01,-1.55,01,64.81,,14.17,08
1998,3,1,11,40,359.60,97,888.00,97,49.38,01,364.80,01,-.97,01,62.93,,14.16,08
1998,3,1,11,45,379.50,97,900.00,97,50.24,01,382.50,01,-.57,01,60.27,,14.15,08
1998,3,1,11,50,397.50,97,910.00,97,51.57,01,399.20,01,-.06,01,58.25,,14.14,08
1998,3,1,11,55,413.90,97,917.00,97,52.84,01,415.40,01,.50,01,55.83,,14.12,08
1998,3,1,12,0,429.30,97,923.00,97,53.65,01,431.30,01,1.06,01,53.44,,14.11,08
1998,3,1,12,5,445.80,97,931.00,97,54.32,01,448.20,01,1.45,01,50.71,,14.10,08
1998,3,1,12,10,461.60,97,938.00,97,55.05,01,464.10,01,1.82,01,46.32,,14.09,08
1998,3,1,12,15,478.00,97,945.00,97,56.08,01,480.00,01,2.22,01,42.67,,14.08,08
1998,3,1,12,20,493.60,96,951.00,96,56.76,01,495.40,01,2.59,01,39.39,,14.06,08
1998,3,1,12,25,509.00,96,957.00,96,57.79,01,509.90,01,2.98,01,36.46,,14.05,08
1998,3,1,12,30,523.10,96,962.00,96,57.36,01,524.20,01,3.20,01,33.02,,14.04,08
1998,3,1,12,35,538.60,96,970.00,96,56.89,01,539.30,01,3.30,01,30.16,,14.02,08
1998,3,1,12,40,552.80,96,973.00,96,56.52,01,553.50,01,3.49,01,29.53,,14.01,08
1998,3,1,12,45,567.40,95,978.00,95,56.49,01,567.30,01,3.71,01,29.47,,14.00,01
1998,3,1,12,50,580.60,95,980.00,95,55.98,01,580.60,01,4.03,01,27.57,,14.00,01
1998,3,1,12,55,596.10,95,986.00,95,55.91,01,595.10,01,4.18,01,26.21,,13.99,01
1998,3,1,13,0,611.10,95,993.00,95,56.42,01,608.80,01,4.38,01,25.82,,13.98,01
1998,3,1,13,5,623.90,95,994.00,95,56.85,01,620.40,01,4.44,01,23.76,,13.97,01
1998,3,1,13,10,637.00,95,997.00,95,57.87,01,631.90,01,4.53,01,24.73,,13.96,01
1998,3,1,13,15,649.50,94,1001.00,94,58.14,01,643.60,01,4.69,01,24.17,,13.95,01
1998,3,1,13,20,660.70,94,1002.00,94,59.02,01,654.00,01,5.09,01,23.27,,13.94,01
1998,3,1,13,25,672.10,94,1004.00,94,58.63,01,665.30,01,5.15,01,21.92,,13.94,01
1998,3,1,13,30,684.10,38,1007.00,39,59.73,39,675.60,01,5.21,01,21.03,,13.93,01
1998,3,1,13,35,694.70,34,1008.00,35,60.48,35,685.00,01,5.04,01,20.59,,13.92,01
1998,3,1,13,40,705.00,30,1005.00,31,59.65,31,695.40,01,5.23,01,20.79,,13.91,01
1998,3,1,13,45,716.00,26,1009.00,27,61.04,27,705.00,01,5.36,01,21.34,,13.91,01
1998,3,1,13,50,725.00,22,1013.00,23,61.29,23,713.00,01,5.75,01,21.12,,13.90,01
1998,3,1,13,55,734.00,18,1015.00,19,60.83,19,722.00,01,5.74,01,20.72,,13.89,01
1998,3,1,14,0,745.00,10,1020.00,11,62.05,11,731.00,01,6.09,01,20.45,,13.89,01
1998,3,1,14,5,753.00,03,1022.00,03,61.07,03,738.00,01,6.05,01,19.71,,13.71,01
1998,3,1,14,10,762.00,03,1028.00,03,61.52,03,746.00,01,5.73,01,19.40,,13.63,01
1998,3,1,14,15,770.00,03,1030.00,03,63.01,03,752.00,01,5.76,01,20.32,,13.61,01
1998,3,1,14,20,778.00,03,1030.00,03,63.37,03,759.00,01,6.03,01,19.42,,13.59,01
1998,3,1,14,25,785.00,03,1032.00,03,63.92,03,766.00,01,6.31,01,19.35,,13.59,01
1998,3,1,14,30,790.00,11,1031.00,10,64.06,10,770.00,01,6.55,01,19.44,,13.58,01
1998,3,1,14,35,795.00,19,1033.00,18,63.94,18,776.00,01,6.83,01,19.85,,13.58,01
1998,3,1,14,40,800.00,23,1031.00,22,62.99,22,781.00,01,6.91,01,19.07,,13.57,01
1998,3,1,14,45,806.00,31,1034.00,30,65.27,30,784.00,01,6.84,01,19.70,,13.57,01
1998,3,1,14,50,810.00,35,1035.00,34,64.02,34,789.00,01,7.17,01,17.91,,13.56,01
1998,3,1,14,55,812.00,43,1033.00,42,63.78,42,791.00,01,7.13,01,17.37,,13.56,01
1998,3,1,15,0,-5.75,07,2.43,01,-5.61,07,0.00,01,-2.69,01,52.71,,13.34,01
1998,3,1,15,5,-5.62,07,2.85,01,-5.50,07,0.00,01,-2.52,01,52.10,,14.01,08
1998,3,1,15,10,-5.39,07,2.95,01,-5.30,07,0.00,01,-2.29,01,50.64,,14.12,08
1998,3,1,15,15,-5.36,07,3.35,01,-5.31,07,0.00,01,-2.13,01,49.73,,14.15,08
1998,3,1,15,20,-5.34,07,3.59,01,-5.28,07,0.00,01,-2.06,01,48.73,,14.17,08
1998,3,1,15,25,-5.34,07,3.59,01,-5.29,07,0.00,01,-2.24,01,49.76,,14.18,08
1998,3,1,15,30,-5.39,07,3.21,01,-5.30,07,0.00,01,-2.46,01,50.49,,14.18,08
1998,3,1,15,35,-5.46,07,2.88,01,-5.37,07,0.00,01,-2.72,01,51.53,,14.18,08
1998,3,1,15,40,-5.33,07,2.27,01,-5.15,07,0.00,01,-3.14,01,52.96,,14.19,08
1998,3,1,15,45,-5.02,07,2.26,01,-4.95,07,0.00,01,-3.34,01,53.39,,14.19,08
1998,3,1,15,50,-4.90,07,2.21,01,-4.78,07,0.00,01,-3.28,01,52.63,,14.19,08
1998,3,1,15,55,-4.78,07,2.20,01,-4.55,07,0.00,01,-3.21,01,51.37,,14.20,08
1998,3,1,16,0,-5.06,07,1.65,01,-4.85,07,0.00,01,-3.31,01,50.71,,14.20,08
1998,3,1,16,5,-5.23,07,1.58,01,-4.92,07,0.00,01,-3.55,01,52.11,,14.21,08
1998,3,1,16,10,-5.03,07,2.09,01,-4.95,07,0.00,01,-3.65,01,54.04,,14.21,08
1998,3,1,16,15,-5.22,07,1.54,01,-5.20,07,0.00,01,-3.97,01,55.59,,14.21,08
1998,3,1,16,20,-5.22,07,2.09,01,-5.01,07,0.00,01,-4.01,01,55.13,,14.22,08
1998,3,1,16,25,-5.27,07,2.83,01,-5.01,07,0.00,01,-4.00,01,55.46,,14.22,08
1998,3,1,16,30,-5.76,07,2.23,01,-5.61,07,0.00,01,-4.48,01,58.95,,14.22,08
1998,3,1,16,35,-5.96,07,2.02,01,-5.71,07,0.00,01,-5.03,01,61.52,,14.22,08
1998,3,1,16,40,-6.04,07,1.47,01,-5.89,07,0.00,01,-5.53,01,63.00,,14.23,08
1998,3,1,16,45,-6.01,07,2.10,01,-5.66,07,0.00,01,-5.93,01,64.90,,14.23,08
1998,3,1,16,50,-5.90,07,1.95,01,-5.66,07,0.00,01,-6.09,01,65.10,,14.24,08
1998,3,1,16,55,-5.93,07,1.94,01,-5.65,07,0.00,01,-6.56,01,68.00,,14.24,08
1998,3,1,17,0,-5.64,07,2.53,01,-5.42,07,0.00,01,-6.79,01,68.13,,14.24,08
1998,3,1,17,5,-5.49,07,2.96,01,-5.33,07,0.00,01,-7.12,01,69.68,,14.25,08
1998,3,1,17,10,-5.50,07,3.37,01,-5.28,07,0.00,01,-7.33,01,71.60,,14.25,08
1998,3,1,17,15,-5.44,07,3.31,01,-5.21,07,0.00,01,-7.44,01,71.60,,14.26,08
1998,3,1,17,20,-5.42,07,4.11,01,-5.16,07,0.00,01,-7.82,01,74.00,,14.26,08
1998,3,1,17,25,-4.91,07,5.50,01,-4.83,07,0.00,01,-7.60,01,74.00,,14.26,08
1998,3,1,17,30,-4.82,07,5.76,01,-4.77,07,0.00,01,-7.32,01,73.50,,14.27,08
1998,3,1,17,35,-5.05,07,5.13,01,-4.86,07,0.00,01,-7.35,01,71.80,,14.27,08
1998,3,1,17,40,-4.98,07,5.21,01,-4.85,07,0.00,01,-7.42,01,72.40,,14.27,08
1998,3,1,17,45,-4.75,07,5.43,01,-4.69,07,0.00,01,-7.31,01,71.20,,14.27,08
1998,3,1,17,50,-4.78,07,5.45,01,-4.68,07,0.00,01,-7.38,01,72.20,,14.28,08
1998,3,1,17,55,-4.54,01,6.00,01,-4.36,01,0.00,01,-6.82,01,70.20,,14.28,08
1998,3,1,18,0,-4.75,01,5.69,01,-4.71,01,0.00,01,-6.81,01,70.70,,14.28,08
1998,3,1,18,5,-4.70,01,5.86,01,-4.52,01,0.00,01,-6.74,01,70.70,,14.28,08
1998,3,1,18,10,-4.85,01,5.24,01,-4.72,01,0.00,01,-6.81,01,70.80,,14.28,08
1998,3,1,18,15,-4.92,01,5.13,01,-4.87,01,0.00,01,-6.89,01,70.30,,14.28,08
1998,3,1,18,20,-4.88,01,5.13,01,-4.78,01,0.00,01,-6.96,01,70.80,,14.28,08
1998,3,1,18,25,-4.79,01,5.13,01,-4.73,01,0.00,01,-6.86,01,69.33,,14.29,08
1998,3,1,18,30,-4.74,01,5.45,01,-4.62,01,0.00,01,-6.85,01,69.04,,14.29,08
1998,3,1,18,35,-4.52,01,6.48,01,-4.27,01,0.00,01,-6.55,01,68.38,,14.29,08
1998,3,1,18,40,-4.46,01,6.65,01,-4.25,01,0.00,01,-6.36,01,68.13,,14.29,08
1998,3,1,18,45,-5.18,01,4.89,01,-5.03,01,0.00,01,-6.65,01,67.46,,14.29,08
1998,3,1,18,50,-5.66,01,3.57,01,-5.48,01,0.00,01,-7.57,01,72.70,,14.29,08
1998,3,1,18,55,-5.36,01,4.37,01,-5.16,01,0.00,01,-7.82,01,73.90,,14.29,08
1998,3,1,19,0,-5.20,01,4.34,01,-5.00,01,0.00,01,-7.88,01,74.10,,14.30,08
1998,3,1,19,5,-5.09,01,4.54,01,-4.91,01,0.00,01,-7.84,01,74.00,,14.30,08
1998,3,1,19,10,-5.11,01,4.97,01,-4.87,01,0.00,01,-7.95,01,75.10,,14.30,08
1998,3,1,19,15,-4.67,01,5.13,01,-4.41,01,0.00,01,-7.93,01,75.70,,14.30,08
1998,3,1,19,20,-4.53,01,4.72,01,-4.27,01,0.00,01,-7.89,01,74.50,,14.31,08
1998,3,1,19,25,-4.55,01,4.77,01,-4.30,01,0.00,01,-7.79,01,74.70,,14.31,08
1998,3,1,19,30,-4.17,01,5.79,01,-4.05,01,0.00,01,-7.32,01,72.70,,14.31,08
1998,3,1,19,35,-4.08,01,7.06,01,-3.99,01,0.00,01,-7.10,01,70.90,,14.31,08
1998,3,1,19,40,-4.31,01,7.55,01,-4.15,01,0.00,01,-7.06,01,70.30,,14.31,08
1998,3,1,19,45,-4.25,01,8.06,01,-4.06,01,0.00,01,-7.07,01,70.80,,14.32,08
1998,3,1,19,50,-4.42,01,7.34,01,-4.19,01,0.00,01,-7.12,01,70.10,,14.32,08
1998,3,1,19,55,-4.71,01,6.36,01,-4.50,01,0.00,01,-7.57,01,70.90,,14.32,08
1998,3,1,20,0,-4.71,01,5.81,01,-4.51,01,0.00,01,-7.73,01,73.20,,14.32,08
1998,3,1,20,5,-4.66,01,5.52,01,-4.50,01,0.00,01,-7.66,01,73.70,,14.32,08
1998,3,1,20,10,-4.64,01,5.13,01,-4.48,01,0.00,01,-7.64,01,72.90,,14.32,08
1998,3,1,20,15,-4.62,01,5.13,01,-4.45,01,0.00,01,-7.76,01,73.40,,14.32,08
1998,3,1,20,20,-4.46,01,4.78,01,-4.24,01,0.00,01,-7.73,01,73.40,,14.32,08
1998,3,1,20,25,-4.63,01,4.26,01,-4.45,01,0.00,01,-7.56,01,72.00,,14.33,08
1998,3,1,20,30,-4.57,01,3.96,01,-4.36,01,0.00,01,-7.43,01,71.90,,14.33,08
1998,3,1,20,35,-4.66,01,4.27,01,-4.48,01,0.00,01,-7.43,01,72.10,,14.33,08
1998,3,1,20,40,-4.61,01,5.10,01,-4.42,01,0.00,01,-7.27,01,71.00,,14.33,08
1998,3,1,20,45,-4.65,01,5.10,01,-4.43,01,0.00,01,-7.11,01,69.79,,14.33,08
1998,3,1,20,50,-4.80,01,4.70,01,-4.65,01,0.00,01,-7.24,01,69.79,,14.33,08
1998,3,1,20,55,-4.83,01,4.61,01,-4.70,01,0.00,01,-7.18,01,69.43,,14.33,08
1998,3,1,21,0,-4.92,01,5.13,01,-4.78,01,0.00,01,-7.38,01,71.90,,14.33,08
1998,3,1,21,5,-4.91,01,5.13,01,-4.73,01,0.00,01,-7.55,01,72.20,,14.33,08
1998,3,1,21,10,-4.78,01,5.13,01,-4.57,01,0.00,01,-7.57,01,73.20,,14.33,08
1998,3,1,21,15,-4.69,01,5.13,01,-4.43,01,0.00,01,-7.49,01,72.60,,14.33,08
1998,3,1,21,20,-4.64,01,5.47,01,-4.42,01,0.00,01,-7.46,01,72.40,,14.33,08
1998,3,1,21,25,-4.96,01,4.20,01,-4.80,01,.02,01,-7.57,01,70.20,,14.33,08
1998,3,1,21,30,-4.63,01,3.62,01,-4.43,01,.50,01,-8.10,01,73.30,,14.33,08
1998,3,1,21,35,-3.37,01,4.97,01,-3.17,01,1.57,01,-8.03,01,73.70,,14.33,08
1998,3,1,21,40,-1.47,01,5.85,01,-1.37,01,3.39,01,-7.70,01,72.50,,14.33,08
1998,3,1,21,45,.63,01,7.59,01,.74,01,6.07,01,-7.62,01,72.10,,14.33,08
1998,3,1,21,50,4.19,01,73.60,08,4.09,01,10.29,01,-7.65,01,72.90,,14.33,08
1998,3,1,21,55,10.85,08,172.40,08,7.90,01,17.04,01,-7.62,01,73.10,,14.33,08
1998,3,1,22,0,20.13,08,258.60,08,11.55,08,26.46,01,-7.53,01,73.70,,14.33,08
1998,3,1,22,5,31.46,08,335.80,08,14.82,08,38.71,01,-7.56,01,74.80,,14.33,08
1998,3,1,22,10,44.53,08,403.60,08,18.14,08,53.52,01,-7.57,01,75.90,,14.32,08
1998,3,1,22,15,58.73,08,462.50,08,21.09,08,70.60,01,-7.41,01,77.20,,14.32,08
1998,3,1,22,20,74.40,08,516.60,08,23.99,08,90.00,01,-7.19,01,77.40,,14.31,08
1998,3,1,22,25,90.60,08,560.40,08,26.72,08,109.80,01,-6.85,01,77.10,,14.31,08
1998,3,1,22,30,107.20,08,601.10,08,29.05,08,128.00,01,-6.44,01,75.10,,14.30,08
1998,3,1,22,35,124.60,08,638.60,08,31.10,08,144.50,01,-6.02,01,74.50,,14.29,08
1998,3,1,22,40,142.30,08,673.60,08,32.95,08,161.20,01,-5.56,01,72.90,,14.28,08
1998,3,1,22,45,160.10,08,703.00,08,34.57,08,178.30,01,-5.06,01,71.30,,14.26,08
1998,3,1,22,50,178.00,08,728.00,08,35.91,08,195.70,01,-4.63,01,68.81,,14.26,08
1998,3,1,22,55,196.10,08,748.00,08,37.72,08,213.00,01,-4.23,01,67.28,,14.25,08
1998,3,1,23,0,215.00,08,768.00,08,40.06,08,230.50,01,-3.79,01,65.79,,14.24,08
1998,3,1,23,5,234.20,08,787.00,08,42.32,08,248.00,01,-3.36,01,64.54,,14.23,08
1998,3,1,23,10,253.20,08,805.00,08,44.38,08,265.30,01,-2.85,01,63.62,,14.21,08
1998,3,1,23,15,271.50,08,822.00,08,45.54,08,282.40,01,-2.23,01,62.46,,14.20,08
1998,3,1,23,20,289.80,08,842.00,08,45.71,08,300.20,01,-1.42,01,58.63,,14.19,08
1998,3,1,23,25,307.80,08,858.00,08,45.63,08,318.30,01,-.95,01,55.51,,14.18,08
1998,3,1,23,30,326.80,08,872.00,08,46.38,08,335.90,01,-.36,01,54.63,,14.17,08
1998,3,1,23,35,346.40,08,885.00,08,46.37,08,353.90,01,.32,01,49.78,,14.15,08
1998,3,1,23,40,366.30,08,893.00,08,47.29,08,370.70,01,.92,01,47.62,,14.14,08
1998,3,1,23,45,384.00,08,901.00,08,47.41,08,387.70,01,1.26,01,45.15,,14.13,08
1998,3,1,23,50,401.30,08,912.00,08,47.13,08,405.00,01,1.60,01,42.40,,14.12,08
1998,3,1,23,55,417.90,08,922.00,08,47.21,08,422.40,01,2.06,01,40.20,,14.11,08
1998,3,2,0,0,432.50,08,927.00,08,47.41,08,438.30,01,2.19,01,38.64,,14.10,08
1998,3,2,0,5,448.10,08,935.00,08,47.49,08,454.70,01,2.46,01,37.50,,14.09,08
1998,3,2,0,10,463.90,08,943.00,08,47.51,08,470.90,01,2.58,01,35.08,,14.08,08
1998,3,2,0,15,479.20,08,949.00,08,48.19,08,486.40,01,2.86,01,35.88,,14.07,08
1998,3,2,0,20,494.90,08,955.00,08,49.11,08,501.50,01,3.25,01,34.41,,14.06,08
1998,3,2,0,25,510.40,08,962.00,08,48.81,08,517.10,01,3.24,01,34.50,,14.06,08
1998,3,2,0,30,525.50,08,965.00,08,49.39,08,531.80,01,3.36,01,35.20,,14.05,08
1998,3,2,0,35,540.60,08,970.00,08,49.63,08,546.10,01,3.66,01,34.85,,14.04,08
1998,3,2,0,40,555.60,08,975.00,08,49.51,08,560.90,01,3.69,01,34.84,,14.03,08
1998,3,2,0,45,570.50,08,981.00,08,50.43,08,574.40,01,3.98,01,34.50,,14.02,08
1998,3,2,0,50,584.80,08,986.00,08,50.48,08,588.10,01,3.90,01,34.19,,14.02,08
1998,3,2,0,55,599.30,08,992.00,08,51.21,08,601.30,01,4.18,01,32.70,,14.01,08
1998,3,2,1,0,612.00,08,994.00,08,51.43,08,613.30,01,4.26,01,32.15,,14.00,01
1998,3,2,1,5,625.80,08,998.00,08,51.75,08,626.00,01,4.40,01,31.06,,14.00,01
1998,3,2,1,10,638.20,08,999.00,08,52.18,08,637.70,01,4.39,01,30.90,,13.99,01
1998,3,2,1,15,652.10,08,1005.00,08,52.35,08,650.50,01,4.58,01,29.03,,13.98,01
1998,3,2,1,20,664.00,08,1007.00,08,53.27,08,661.30,01,4.77,01,28.84,,13.98,01
1998,3,2,1,25,675.80,08,1009.00,08,54.05,08,672.00,01,4.94,01,29.00,,13.97,01
1998,3,2,1,30,687.80,08,1013.00,08,54.05,08,682.90,01,5.02,01,28.11,,13.96,01
1998,3,2,1,35,699.70,08,1017.00,08,55.34,08,693.30,01,5.34,01,26.32,,13.96,01
1998,3,2,1,40,707.00,08,1012.00,08,56.99,08,700.00,01,5.40,01,26.30,,13.95,01
1998,3,2,1,45,720.00,08,1021.00,08,55.49,08,712.00,01,5.49,01,26.71,,13.94,01
1998,3,2,1,50,730.00,08,1024.00,08,55.08,08,721.00,01,5.61,01,26.98,,13.94,01
1998,3,2,1,55,739.00,08,1024.00,08,55.28,08,730.00,01,5.70,01,27.92,,13.94,01
1998,3,2,2,0,749.00,08,1028.00,08,57.01,08,738.00,01,6.23,01,27.44,,13.93,01
1998,3,2,2,5,756.00,08,1026.00,08,57.09,08,745.00,01,6.08,01,27.65,,13.74,01
1998,3,2,2,10,765.00,08,1030.00,08,57.69,08,752.00,01,6.53,01,27.13,,13.63,01
1998,3,2,2,15,771.00,08,1028.00,08,57.51,08,759.00,01,6.22,01,27.22,,13.57,01
1998,3,2,2,20,778.00,08,1028.00,08,57.82,08,765.00,01,6.11,01,27.40,,13.53,01
1998,3,2,2,25,785.00,08,1032.00,08,58.43,08,771.00,01,6.28,01,27.56,,13.50,01
1998,3,2,2,30,791.00,08,1034.00,08,59.14,08,776.00,01,6.54,01,27.59,,13.50,01
1998,3,2,2,35,797.00,08,1035.00,08,59.75,08,781.00,01,6.92,01,27.17,,13.51,01
1998,3,2,2,40,802.00,08,1035.00,08,59.76,08,786.00,01,6.88,01,27.35,,13.50,01